Hourly Weather Roundup
Issued by NWS Central Illinois

Home | Current Version | Previous Version | Text Only | Print | Product List | Glossary On
Versions: 1 2 3 4 5 6 7 8 9 10 11 12 13 14 15 16 17 18 19 20 21 22 23 24 25 26 27 28 29 30 31 32 33 34 35 36 37 38 39 40 41 42 43 44 45 46 47 48 49 50
000
NZUS43 KILX 180510
HWRILX

AREA WEATHER ROUNDUP
NATIONAL WEATHER SERVICE, LINCOLN IL
1100 PM CST WED DEC 17 2014


CITY           SKY/WX    TMP DP  RH WIND       PRES   REMARKS
BLOOMINGTON    CLOUDY    25  21  84 CALM      30.30S
CHAMPAIGN      CLOUDY    26  19  74 NW6       30.31R WCI  19
DECATUR        CLOUDY    24  19  81 SE3       30.31S
FLORA          CLOUDY    28  24  85 NE3       30.33R
GALESBURG      MOCLDY    17  15  91 CALM      30.30F
JACKSONVILLE   CLOUDY    25  22  89 CALM      30.31F
LACON          PTCLDY    18  15  88 CALM      30.31S
LAWRENCEVILLE  CLOUDY    27  22  81 NE10      30.31F WCI  17
LITCHFIELD     CLOUDY    25  22  87 NE5       30.31S WCI  19
$$


CITY           SKY/WX    TMP DP  RH WIND       PRES   REMARKS
LINCOLN        MOCLDY    22  19  91 S3        30.33S
MACOMB         MOCLDY    20  18  93 CALM      30.32F
MATTOON        CLOUDY    24  17  74 N6        30.30R WCI  17
MT CARMEL AP   CLOUDY    30  25  80 N6        30.31R WCI  24
OLNEY-NOBLE AP CLOUDY    28  23  80 CALM      30.32R
PARIS          CLOUDY    26  21  83 CALM      30.32R
PEORIA         PTCLDY    23  17  78 NE6       30.30F WCI  16
PONTIAC        PTCLDY    21  19  90 CALM      30.32R
RANTOUL        CLOUDY    27  20  75 NW6       30.31R WCI  21
ROBINSON       CLOUDY    25  21  86 N3        30.34S
SPRINGFIELD    CLOUDY    22  19  89 CALM      30.31F
TAYLORVILLE    CLOUDY    23  19  86 E3        30.32S
$$

...REGIONAL REPORTS...


CITY           SKY/WX    TMP DP  RH WIND       PRES   REMARKS
CHICAGO O`HARE FLURRIES  24  15  68 NW9       30.28R WCI  14
KANKAKEE       CLOUDY    26  20  76 W6        30.32R WCI  19
MOLINE         PTCLDY    18  15  88 CALM      30.31R
MOUNT VERNON   CLOUDY    28  21  74 NE5       30.31S WCI  23
PITTSFIELD     CLOUDY    27  22  84 CALM      30.31S
QUINCY         CLOUDY    25  19  78 CALM      30.31R
ROCKFORD       CLOUDY    23  14  68 VRB3      30.32R
$$


CITY           SKY/WX    TMP DP  RH WIND       PRES   REMARKS
BURLINGTON     MOCLDY    21  16  81 N3        30.29F
CEDAR RAPIDS   CLEAR     15  12  88 NW3       30.29S
DES MOINES     MOCLDY    23  16  74 NE3       30.29F
KIRKSVILLE     CLOUDY    27  22  81 E3        30.29F
OTTUMWA        MOCLDY    21  15  78 NE5       30.29F WCI  15
ST LOUIS       CLOUDY    31  23  72 NE6       30.30F WCI  25
$$


CITY           SKY/WX    TMP DP  RH WIND       PRES   REMARKS
TERRE HAUTE    CLOUDY    25  18  74 N7        30.32S WCI  17
EVANSVILLE     CLOUDY    31  25  78 N6        30.31R WCI  25
INDIANAPOLIS   CLOUDY    24  17  74 W3        30.29R
LAFAYETTE      CLOUDY    25  18  74 NW8       30.30R WCI  16
MADISON        CLEAR     18  12  77 NW3       30.27R
MILWAUKEE      PTCLDY    22  13  68 NW10      30.26R WCI  11
$$





USA.gov is the U.S. government's official web portal to all federal, state and local government web resources and services.